Flag for Canada Weather past 2 weeks in Chatham-Kent, Ontario, Canada

Now
20 °F

Cold.


Feels Like: 9 °F
Forecast: N/A
Wind: 10 mph from Northeast

Location: Erieau

Current Time: Jan 25, 2015 at 5:34:29 PM

Latest Report: Jan 25, 2015 at 4:00 PM


Visibility: N/A

Pressure: 29.94 "Hg

Humidity: 67%

Dew point: 11 °F

Location of Chatham-KentLocation

Historic Weather in Chatham-Kent — Graph

°F

Chatham-Kent temperature yesterday

Maximum temperature yesterday: 32 °F (at 9:00 PM)
Minimum temperature yesterday: 26 °F (at 12:00 AM)
Average temperature yesterday: 29 °F

Past Weeks' High & Low Weather Summary

 TemperatureHumidityPressure
High39 °F (Jan 18, 12:00 AM)100% (Jan 11, 9:00 PM)30.77 "Hg (Jan 11, 9:00 PM)
Low-2 °F (Jan 13, 8:00 AM)57% (Jan 16, 2:00 PM)29.55 "Hg (Jan 24, 3:00 PM)
Average24 °F83%30.13 "Hg
* Reported Jan 10 4:00 PM — Jan 25 4:00 PM, Chatham-Kent, Weather by CustomWeather, © 2014

Note: Actual official high and low records may vary slightly from our data, if they occured in-between our weather recording intervals... More about our weather records

Advertising

Chatham-Kent weather history for previous 24 hours

 ConditionsComfort  
Time TempWeatherWind HumidityBarometerVisibility
4:00 PM
Jan 25
20 °FCold.10 mph67%29.94 "HgN/A
3:00 PM20 °FCold.12 mph67%29.91 "HgN/A
2:00 PM20 °FCold.12 mph66%29.92 "HgN/A
1:00 PM20 °FCold.12 mph66%29.93 "HgN/A
12:00 PM20 °FCold.16 mph71%29.93 "HgN/A
11:00 AM20 °FCold.14 mph72%29.92 "HgN/A
10:00 AM21 °FCold.14 mph73%29.91 "HgN/A
9:00 AM22 °FCold.13 mph78%29.88 "HgN/A
8:00 AM24 °FCold.18 mph94%29.85 "HgN/A
7:00 AM26 °FChilly.14 mph86%29.82 "HgN/A
6:00 AM28 °FChilly.9 mph83%29.79 "HgN/A
5:00 AM29 °FChilly.12 mph77%29.76 "HgN/A
4:00 AM30 °FChilly.9 mph83%29.75 "HgN/A
3:00 AM32 °FChilly.6 mph83%29.72 "HgN/A
2:00 AM34 °FChilly.5 mph87%29.68 "HgN/A
1:00 AM35 °FChilly.7 mph87%29.67 "HgN/A
12:00 AM31 °FChilly.6 mph98%29.66 "HgN/A
11:00 PM
Jan 24
32 °FChilly.9 mph95%29.65 "HgN/A
10:00 PM32 °FChilly.13 mph95%29.65 "HgN/A
9:00 PM32 °FChilly.13 mph95%29.63 "HgN/A
8:00 PM32 °FChilly.13 mph93%29.62 "HgN/A
7:00 PM31 °FChilly.13 mph92%29.61 "HgN/A
6:00 PM31 °FChilly.12 mph92%29.59 "HgN/A
5:00 PM31 °FChilly.15 mph92%29.57 "HgN/A
Weather by CustomWeather, © 2014

See weather overviewHow to use our weather pages